This is the latest recevied weather packets stored in our database for station/object KD4KKF. If no packets are shown the sender has not sent any weather packets the latest 10 day(s).
| Time | Temp. | Humidity | Pressure | Rain* | Wind** | Luminosity | Snow |
|---|---|---|---|---|---|---|---|
| 1777475068 | 20.56° C | 99% | 1013.2 hPa | 0 mm | - | 209 W/m² | - |
| 1777474766 | 20.56° C | 99% | 1013.2 hPa | 0 mm | - | 98 W/m² | - |
| 1777474462 | 20.56° C | 99% | 1013.3 hPa | 0 mm | - | 185 W/m² | - |
| 1777474158 | 20.56° C | 99% | 1013 hPa | 0 mm | - | 255 W/m² | - |
| 1777473856 | 20.56° C | 99% | 1013.3 hPa | 0 mm | - | 165 W/m² | - |
| 1777473553 | 20.56° C | 99% | 1013.5 hPa | 0 mm | - | 95 W/m² | - |
| 1777473248 | 20.56° C | 99% | 1013.3 hPa | 0 mm | - | 83 W/m² | - |
| 1777472945 | 20° C | 99% | 1013.3 hPa | 0 mm | - | 130 W/m² | - |
| 1777472641 | 20° C | 99% | 1013.3 hPa | 0 mm | - | 125 W/m² | - |
| 1777472338 | 20° C | 99% | 1013.4 hPa | 0 mm | - | 233 W/m² | - |
| 1777472036 | 20° C | 99% | 1013.1 hPa | 0 mm | - | 157 W/m² | - |
| 1777471736 | 20° C | 99% | 1013.2 hPa | 0 mm | - | 187 W/m² | - |
| 1777471433 | 19.44° C | 99% | 1013.3 hPa | 0 mm | - | 106 W/m² | - |
| 1777471129 | 19.44° C | 99% | 1013.7 hPa | 0 mm | - | 99 W/m² | - |
| 1777470826 | 19.44° C | 99% | 1013.9 hPa | 0 mm | - | 99 W/m² | - |
| 1777470523 | 19.44° C | 99% | 1013.7 hPa | 0 mm | - | 89 W/m² | - |
| 1777470219 | 19.44° C | 99% | 1013.6 hPa | 0 mm | - | 132 W/m² | - |
| 1777469916 | 18.89° C | 99% | 1013.6 hPa | 0 mm | - | 88 W/m² | - |
| 1777469611 | 18.89° C | 99% | 1013.5 hPa | 0 mm | - | 68 W/m² | - |
| 1777469306 | 18.89° C | 99% | 1013.6 hPa | 0 mm | - | 84 W/m² | - |
| 1777469002 | 18.89° C | 99% | 1013.6 hPa | 0 mm | - | 73 W/m² | - |
| 1777468697 | 18.89° C | 99% | 1013.5 hPa | 0 mm | - | 61 W/m² | - |
| 1777468394 | 18.89° C | 99% | 1013.4 hPa | 0 mm | - | 85 W/m² | - |
| 1777468090 | 18.89° C | 99% | 1013.6 hPa | 0 mm | - | 53 W/m² | - |
| 1777467786 | 18.33° C | 99% | 1013.4 hPa | 0 mm | - | 152 W/m² | - |
* Rain latest hour (hover to see other rain measurements)
** Current wind speed in m/s (hover to see current wind gust speed)